Regional Weather Roundup
Issued by NWS

Home | Current Version | Previous Version | Graphics & Text | Print | Product List | Glossary On
Versions: 1 2 3 4 5 6 7 8 9 10 11 12 13 14 15 16 17 18 19 20 21 22 23 24 25 26 27 28 29 30 31 32 33 34 35 36 37 38 39 40 41 42 43 44 45 46 47 48 49 50
000
ASUS45 KTFX 260919
RWRMT
MONTANA HOURLY WEATHER ROUNDUP
NATIONAL WEATHER SERVICE GREAT FALLS MT
219 AM MST WED NOV 26 2014

NOTE: "FAIR" INDICATES FEW OR NO CLOUDS BELOW 12000 FEET WITH NO
SIGNIFICANT WEATHER AND/OR OBSTRUCTIONS TO VISIBILITY.

* THESE STATIONS ARE NOT UNDER NWS QUALITY CONTROL. THEY DO NOT
   REPORT WEATHER SUCH AS PRECIPITATION OR FOG.

MTZ001>007-043-261000-
WEST OF THE DIVIDE
CITY           SKY/WX    TMP DP  RH WIND       PRES   REMARKS
KALISPELL      LGT SNOW  32  32 100 CALM      30.15S VSB 1 1/4
MISSOULA       LGT SNOW  32  32 100 CALM      30.14F VSB 1 1/4
BUTTE          LGT SNOW  27  27 100 CALM      30.07S VSB 2 1/2
MULLAN PASS    LGT SNOW  30  28  92 VRB6      30.04F VSB 3/4  WCI  24
* ESSEX        N/A       29  27  92 N/A        N/A
* EUREKA APT   CLOUDY    32  30  92 CALM      30.18S VSB 2
* LIBBY APT    MOCLDY    32  30  92 CALM      30.17F VSB 2
* LINCOLN      N/A       28  27  96 N/A        N/A
* LOOKOUT PASS N/A       30  30 100 N/A        N/A
* POLSON       N/A       30  30 100 N/A        N/A
* RONAN APT    CLOUDY    32  30  92 N/A        N/A
* SEELEY LAKE  N/A       29  28  96 N/A        N/A
* THOMP F APT  CLOUDY    30  28  92 N1G6       N/A
* YAAK HILL    N/A       32  30  92 N/A        N/A
$$

MTZ008-052>055-261000-
SOUTHWEST MONTANA
CITY           SKY/WX    TMP DP  RH WIND       PRES   REMARKS
BOZEMAN        LGT SNOW  28  27  96 NW3       30.11F VSB 1 1/2
DILLON         CLOUDY    28  27  96 CALM      30.08S
* W YELLOWSTON PTCLDY    32  31  96 SW7G15     N/A   WCI  25
* ENNIS APT    PTCLDY    28  28 100 N/A        N/A
* THREE FORKS  MOCLDY    30   5  34 N/A        N/A
* BOULDER HILL N/A       26  23  88 S7         N/A   WCI  18
* MONIDA PASS  N/A       31  31 100 SE8        N/A   WCI  24
* RAYNOLDS PAS N/A       36   2  23 N/A        N/A
* WHITEHALL    N/A       29  28  96 E3         N/A
* WISE RIVER   N/A       28  27  96 SE2        N/A
$$

MTZ009>010-012-014-046-048-049-054-261000-
EAST SLOPES AND CENTRAL MONTANA
CITY           SKY/WX    TMP DP  RH WIND       PRES   REMARKS
CUT BANK       CLOUDY    28  25  89 E5        30.12S WCI  22
GREAT FALLS    LGT SNOW  28  27  96 E6        30.12S WCI  21
HELENA         LGT SNOW  30  30 100 CALM      30.12S VSB 1
MALMSTROM AFB  LGT SNOW  28  28 100 SE7       30.15F WCI  21
* CONRAD       CLOUDY    27  25  92 CALM       N/A
* DEARBORN     N/A       31  30  96 N/A        N/A
* EAST GLACIER N/A       24  22  92 E1         N/A
* MONARCH      N/A       23  19  85 SE2        N/A
* PENDROY      N/A       27  26  96 S3         N/A
* ROGERS PASS  N/A       26  23  88 NW1        N/A
* SAINT MARY   N/A       29  24  82 S4G14      N/A
* SWEET GRASS  N/A       28  24  85 SW6        N/A   WCI  21
* WHITE SULPH  N/A       25  24  96 S3         N/A
$$

MTZ011-013-016-021-035-040-045-047-050-051-261000-
NORTH CENTRAL MONTANA
CITY           SKY/WX    TMP DP  RH WIND       PRES   REMARKS
HAVRE          LGT SNOW  28  25  89 CALM      30.19S
LEWISTOWN      LGT SNOW  28  25  89 SW7       30.13F VSB 2 1/2 WCI  21
* N BAR RANCH  CLOUDY    27  21  78 CALM      30.13R
* CHINOOK      CLOUDY    28  25  89 W3        30.20R
* FORT BENTON  CLOUDY    30  28  92 CALM      30.19S
* CHESTER      N/A       28  26  92 SE1        N/A
* DENTON       N/A       29  25  85 SW7        N/A   WCI  22
* GEYSER       N/A       26  24  92 S4         N/A
* JUDITH GAP   N/A       24  23  96 W1         N/A
* LOMA         N/A       31  26  82 SW2        N/A
$$

MTZ017>020-022>027-061-062-261000-
NORTHEAST MONTANA
CITY           SKY/WX    TMP DP  RH WIND       PRES   REMARKS
GLASGOW        CLOUDY    21  16  81 SE5       30.20F WCI  14
GLENDIVE       CLOUDY    23  19  85 N5        30.21S WCI  16
JORDAN         CLOUDY    27  21  78 CALM      30.19R
SIDNEY         CLOUDY    21  16  81 CALM      30.25S
WOLF POINT     CLOUDY    21  18  88 CALM      30.24S
* BEAVER HILL  N/A       21  19  92 NW7        N/A   WCI  12
* CIRCLE       N/A       23  20  88 N/A        N/A
* LINDSAY DVD  N/A       20  19  96 NW4        N/A
* NAVAJO       N/A       13   9  84 NW6        N/A   WCI   4
* PLENTYWOOD A CLOUDY    12   9  88 N6        30.24R VSB 3    WCI   2
* POPLAR APT   CLOUDY    19  18  96 N/A       30.24R VSB 3
* SACO         N/A       23  19  85 E1         N/A
$$

MTZ028>042-056>058-261000-
SOUTHCENTRAL AND SOUTHEAST MONTANA
CITY           SKY/WX    TMP DP  RH WIND       PRES   REMARKS
BAKER          CLOUDY    25  19  78 NW6       30.17R WCI  18
BILLINGS       LGT SNOW  28  28 100 SW9       30.18S VSB 1 1/2 WCI  19
LIVINGSTON     LGT SNOW  27  25  92 E7        30.11F VSB 1 1/4 WCI  19
MILES CITY     CLOUDY    27  23  85 SW5       30.19R WCI  21
* BIG TIMBER A MOCLDY    27  25  92 CALM      30.13F VSB 1 3/4
* FORSYTH APT  CLOUDY    28  25  89 CALM      30.19R
* LAUREL APT   CLOUDY    28  21  75 N/A        N/A
* ALZADA       N/A       23  22  96 NW9        N/A   WCI  13
* HYSHAM       N/A       27  22  81 SW1        N/A
* LAME DEER    N/A       24  22  92 W6         N/A   WCI  17
* REED POINT   N/A       28  27  96 N/A        N/A
* ROSCOE HILL  N/A       22  19  88 S3         N/A
$$

REGIONAL REPORTS...DAKOTAS
CITY           SKY/WX    TMP DP  RH WIND       PRES   REMARKS
WILLISTON      LGT SNOW  16  10  77 CALM      30.24S
DICKINSON      CLOUDY    19  16  88 N6        30.17R WCI  11
BEACH          FOG       23  23 100 NW9       30.19R WCI  13
CROSBY         LGT SNOW   9   7  91 NW8       30.26R WCI  -3
TIOGA          LGT SNOW  10   9  96 CALM      30.24R
BISMARCK       CLOUDY    12   7  80 N12       30.24R WCI  -2
GRAND FORKS    PTCLDY     3   0  87 N22       30.26R WCI -19
FARGO          CLOUDY    16   9  74 N20       30.17R WCI  -1
BUFFALO SD     CLOUDY    25  19  78 NW9       30.10R WCI  16
RAPID CITY     CLOUDY    25  19  78 N24G29    30.14R WCI  10
$$

REGIONAL REPORTS...WYOMING/IDAHO/WASHINGTON
CITY           SKY/WX    TMP DP  RH WIND       PRES   REMARKS
GILLETTE       CLOUDY    27  23  85 W9        30.13S WCI  18
SHERIDAN       CLOUDY    28  19  69 W17       30.15F WCI  16
CODY           CLOUDY    25  23  92 S3        30.13F VSB 3
YELLOWSTONE LA MOCLDY    32  28  85 VRB6      30.07S WCI  26
SALMON         CLOUDY    34  32  92 SE3       30.14S VSB 3/4
MULLAN PASS    LGT SNOW  30  28  92 VRB6      30.04S VSB 3/4  WCI  24
SAND POINT     RAIN      32  32 100 N5        30.18R WCI  27
SPOKANE        FOG       34  32  92 N5        30.15F VSB 1/2  WCI  29
$$

REGIONAL REPORTS...ALBERTA
CITY           SKY/WX    TMP DP  RH WIND       PRES   REMARKS
CALGARY        FOG       23  21  92 SE5       30.11S VSB 3    WCI  16
LETHBRIDGE     LGT SNOW  27  27 100 E6        30.15S WCI  20
MEDICINE HAT   CLOUDY    23  21  92 E6        30.20S WCI  16
EDMONTON       LGT SNOW  16  10  77 E15       30.17F WCI   1
WATERTON GATE  N/A       28  23  81 SW3        N/A
CARDSTON       N/A       28  23  81 S3         N/A
MILK RIVER     N/A       27  25  92 SE1        N/A
$$

REGIONAL REPORTS...SASKATCHEWAN
CITY           SKY/WX    TMP DP  RH WIND       PRES   REMARKS
SWIFT CURRENT  CLOUDY    10   9  96 E7        30.19R WCI  -1
REGINA         LGT SNOW   1  -2  87 N5        30.29R WCI  -9
VAL MARIE      N/A       21  18  88 NE6        N/A   WCI  13
ASSINIBOIA     N/A        9   5  84 N5         N/A
CORONACH       N/A       12   9  88 NW2        N/A

$$




USA.gov is the U.S. government's official web portal to all federal, state and local government web resources and services.